GFSFLT1_prec_precacc_144.txt.gz
Total_Precipitation_Accumulation
0.03 0.08 0.04 0.04 0.17 0.43 0.85 0.92 1.07 1.07 0.77 0.64 0.61 0.71 0.78 0.83 0.76 0.77 0.97 1.08 1.05 1.14 1.36 1.60 1.59 1.46 1.19 0.99 1.09 1.24 1.23 1.08
0.04 0.07 0.08 0.06 0.12 0.37 0.48 0.71 0.88 0.60 0.38 0.33 0.37 0.42 0.50 0.83 0.84 0.55 0.77 0.98 0.94 0.84 1.13 1.97 2.14 1.36 0.90 0.94 1.21 1.21 1.09 0.96
0.01 0.03 0.05 0.08 0.16 0.38 0.47 0.32 0.27 0.28 0.28 0.16 0.12 0.17 0.29 0.63 0.95 0.69 0.72 0.81 0.76 0.88 0.69 0.82 1.40 1.71 1.55 1.09 1.08 1.34 1.23 1.18
0.02 0.04 0.04 0.06 0.08 0.12 0.24 0.13 0.07 0.07 0.10 0.13 0.11 0.16 0.32 1.03 1.33 1.00 0.74 0.78 0.75 0.79 0.74 0.67 0.81 1.47 1.54 1.17 0.82 0.94 1.32 1.29
0.00 0.00 0.00 0.03 0.03 0.05 0.23 0.13 0.06 0.05 0.05 0.05 0.07 0.11 0.16 0.50 1.03 0.94 0.74 1.02 0.95 0.80 0.92 0.96 0.83 0.80 1.15 1.13 0.91 0.83 1.30 1.19
0.01 0.01 0.00 0.00 0.06 0.08 0.20 0.16 0.16 0.08 0.11 0.15 0.26 0.20 0.14 0.23 0.89 1.22 0.98 0.99 1.17 1.18 1.13 1.25 1.22 1.29 0.95 1.44 1.35 1.24 1.36 1.04
0.04 0.02 0.02 0.02 0.02 0.11 0.19 0.15 0.21 0.23 0.27 0.22 0.22 0.29 0.18 0.19 0.51 1.07 1.37 1.23 1.24 1.22 1.20 1.18 1.06 1.09 1.23 1.44 1.78 1.75 1.76 1.52
0.09 0.06 0.06 0.07 0.05 0.17 0.19 0.16 0.20 0.23 0.30 0.16 0.19 0.32 0.39 0.42 0.44 0.81 1.32 1.64 1.45 0.96 1.04 1.03 0.94 0.76 0.87 1.17 1.58 1.77 2.11 2.18
0.16 0.16 0.18 0.21 0.20 0.22 0.34 0.30 0.37 0.28 0.19 0.25 0.31 0.38 0.46 0.57 0.49 0.71 1.23 1.16 1.00 0.77 0.94 1.09 1.05 1.04 1.04 0.94 1.09 1.11 1.19 1.56
0.19 0.21 0.24 0.28 0.30 0.29 0.33 0.30 0.49 0.48 0.43 0.47 0.41 0.34 0.34 0.39 0.45 0.43 0.68 0.88 1.01 0.94 1.07 1.12 1.15 1.06 1.05 1.04 0.96 0.98 1.00 1.01
0.27 0.27 0.31 0.32 0.34 0.35 0.49 0.34 0.29 0.45 0.60 0.58 0.39 0.45 0.57 0.46 0.45 0.47 0.62 0.90 1.02 1.19 1.29 1.24 1.26 1.28 1.29 1.27 1.16 1.07 1.15 1.04
0.53 0.61 0.51 0.57 0.56 0.54 0.64 0.72 0.79 0.79 0.72 0.58 0.54 0.69 1.02 0.95 0.85 0.77 0.79 1.09 1.34 1.28 1.36 1.57 1.48 1.62 1.62 1.60 1.44 1.28 1.26 1.22
0.41 0.95 1.10 1.05 1.05 1.18 1.01 0.92 1.01 1.09 0.96 0.89 1.22 1.47 1.56 1.45 1.46 1.58 1.32 1.12 1.09 1.04 1.19 1.28 1.23 1.43 1.62 1.62 1.50 1.35 1.33 1.49
0.21 0.43 0.71 1.25 0.78 1.11 0.94 0.93 1.18 1.40 1.47 1.58 1.70 1.70 1.70 1.76 1.70 1.54 1.39 1.46 1.51 1.46 1.65 1.72 1.44 1.32 1.55 1.61 1.60 1.41 1.43 1.51
0.25 0.29 0.36 0.46 0.68 1.25 2.01 1.01 1.21 1.45 1.52 1.29 1.33 1.68 1.70 1.65 1.49 1.28 1.07 1.08 1.09 1.21 1.16 1.22 1.23 1.17 1.25 1.44 1.59 1.67 1.36 1.33
0.29 0.39 0.47 0.49 0.50 0.48 0.64 0.62 1.19 1.73 1.58 1.41 1.60 1.47 1.39 1.40 1.33 1.02 0.82 0.96 1.01 0.94 0.77 0.88 0.96 1.09 1.43 1.36 1.42 1.58 1.54 1.38
0.25 0.31 0.36 0.42 0.53 0.68 0.67 0.60 0.84 1.10 1.47 1.79 1.35 1.69 1.65 1.20 1.13 0.99 0.95 0.98 1.04 1.24 1.03 1.09 1.36 1.42 1.74 1.72 1.62 1.72 1.61 1.50
0.20 0.26 0.30 0.37 0.40 0.33 0.39 0.49 0.60 0.62 0.99 1.86 1.87 1.92 2.69 1.89 1.15 1.16 1.09 1.44 1.40 1.29 1.51 1.43 1.33 1.30 1.73 1.74 1.86 1.66 1.99 1.89
0.22 0.20 0.26 0.30 0.26 0.22 0.20 0.20 0.29 0.38 0.36 0.76 1.39 1.44 2.05 2.85 2.20 1.85 1.90 1.58 1.49 1.22 1.20 1.16 1.14 1.71 1.79 2.15 2.44 2.10 1.81 1.87

GFSFLT1_prec_precacc_150.txt.gz
Total_Precipitation_Accumulation
0.03 0.08 0.04 0.04 0.17 0.43 0.85 0.92 1.07 1.07 0.77 0.64 0.61 0.71 0.78 0.83 0.76 0.77 0.97 1.08 1.05 1.14 1.36 1.60 1.59 1.46 1.19 0.99 1.09 1.24 1.23 1.08
0.04 0.07 0.08 0.06 0.12 0.37 0.48 0.71 0.88 0.60 0.38 0.33 0.37 0.42 0.50 0.83 0.84 0.55 0.77 0.98 0.94 0.84 1.13 1.97 2.14 1.36 0.90 0.94 1.21 1.21 1.09 0.96
0.01 0.03 0.05 0.08 0.16 0.38 0.47 0.32 0.27 0.28 0.28 0.16 0.12 0.17 0.29 0.63 0.95 0.69 0.72 0.81 0.76 0.88 0.69 0.82 1.40 1.71 1.55 1.09 1.08 1.34 1.23 1.18
0.02 0.04 0.04 0.06 0.08 0.12 0.24 0.13 0.07 0.07 0.10 0.13 0.11 0.16 0.32 1.03 1.33 1.00 0.74 0.78 0.75 0.79 0.74 0.67 0.81 1.47 1.55 1.17 0.82 0.94 1.33 1.29
0.00 0.00 0.00 0.03 0.03 0.05 0.23 0.13 0.06 0.05 0.05 0.05 0.07 0.11 0.16 0.50 1.03 0.94 0.74 1.02 0.95 0.80 0.92 0.96 0.83 0.80 1.15 1.13 0.91 0.83 1.31 1.19
0.01 0.01 0.00 0.00 0.06 0.08 0.20 0.16 0.16 0.08 0.11 0.15 0.26 0.20 0.14 0.23 0.89 1.22 0.98 0.99 1.17 1.18 1.13 1.25 1.22 1.29 0.96 1.45 1.36 1.25 1.37 1.05
0.04 0.02 0.02 0.02 0.02 0.11 0.19 0.15 0.21 0.23 0.27 0.22 0.22 0.29 0.18 0.19 0.51 1.07 1.37 1.23 1.24 1.22 1.20 1.18 1.06 1.10 1.24 1.45 1.79 1.76 1.77 1.54
0.09 0.06 0.06 0.07 0.05 0.17 0.19 0.16 0.20 0.23 0.30 0.16 0.19 0.32 0.39 0.42 0.44 0.81 1.32 1.64 1.46 0.96 1.05 1.04 0.95 0.77 0.88 1.18 1.60 1.79 2.13 2.20
0.16 0.16 0.18 0.21 0.20 0.22 0.34 0.30 0.37 0.28 0.19 0.25 0.31 0.38 0.46 0.57 0.49 0.71 1.24 1.17 1.02 0.79 0.96 1.09 1.06 1.07 1.06 0.96 1.12 1.14 1.23 1.61
0.19 0.21 0.24 0.28 0.30 0.29 0.33 0.30 0.49 0.48 0.43 0.47 0.41 0.34 0.34 0.39 0.45 0.44 0.68 0.89 1.05 0.98 1.10 1.13 1.16 1.09 1.07 1.07 1.00 1.03 1.07 1.09
0.27 0.27 0.31 0.32 0.34 0.35 0.49 0.34 0.29 0.45 0.60 0.58 0.39 0.45 0.57 0.46 0.45 0.48 0.62 0.94 1.09 1.25 1.32 1.25 1.27 1.30 1.31 1.29 1.20 1.12 1.22 1.11
0.53 0.61 0.51 0.57 0.56 0.54 0.64 0.72 0.79 0.79 0.72 0.58 0.54 0.69 1.02 0.95 0.85 0.77 0.79 1.11 1.38 1.32 1.39 1.60 1.52 1.65 1.65 1.63 1.48 1.33 1.32 1.28
0.41 0.95 1.10 1.05 1.05 1.18 1.01 0.92 1.01 1.09 0.96 0.89 1.22 1.47 1.56 1.45 1.46 1.58 1.32 1.12 1.09 1.04 1.21 1.30 1.25 1.46 1.66 1.65 1.54 1.39 1.39 1.55
0.21 0.43 0.71 1.25 0.78 1.11 0.94 0.93 1.18 1.40 1.47 1.58 1.70 1.70 1.70 1.76 1.70 1.54 1.39 1.46 1.51 1.46 1.65 1.72 1.45 1.33 1.57 1.64 1.63 1.46 1.48 1.57
0.25 0.29 0.36 0.46 0.68 1.25 2.01 1.01 1.21 1.45 1.52 1.29 1.33 1.68 1.70 1.65 1.49 1.28 1.07 1.08 1.09 1.21 1.16 1.22 1.23 1.17 1.25 1.44 1.60 1.69 1.40 1.40
0.29 0.39 0.47 0.49 0.50 0.48 0.64 0.62 1.19 1.73 1.58 1.41 1.60 1.47 1.39 1.40 1.33 1.02 0.82 0.96 1.01 0.94 0.77 0.88 0.97 1.09 1.43 1.36 1.42 1.58 1.54 1.38
0.25 0.31 0.36 0.42 0.53 0.68 0.67 0.60 0.84 1.10 1.47 1.79 1.35 1.69 1.65 1.20 1.13 0.99 0.95 0.98 1.04 1.24 1.03 1.09 1.36 1.43 1.74 1.72 1.62 1.72 1.61 1.50
0.20 0.26 0.30 0.37 0.40 0.33 0.39 0.49 0.60 0.62 0.99 1.86 1.87 1.92 2.69 1.89 1.15 1.16 1.09 1.44 1.40 1.29 1.51 1.43 1.33 1.30 1.73 1.74 1.86 1.66 1.99 1.89
0.22 0.20 0.26 0.30 0.26 0.22 0.20 0.20 0.29 0.38 0.36 0.76 1.39 1.44 2.05 2.85 2.20 1.85 1.90 1.58 1.49 1.22 1.20 1.16 1.14 1.71 1.79 2.15 2.44 2.10 1.81 1.87

GFSFLT1_prec_precacc_153.txt.gz
Total_Precipitation_Accumulation
0.03 0.08 0.04 0.04 0.17 0.43 0.85 0.92 1.07 1.07 0.77 0.64 0.61 0.71 0.78 0.83 0.76 0.77 0.97 1.08 1.05 1.14 1.36 1.60 1.59 1.46 1.19 0.99 1.09 1.24 1.23 1.08
0.04 0.07 0.08 0.06 0.12 0.37 0.48 0.71 0.88 0.60 0.38 0.33 0.37 0.42 0.50 0.83 0.84 0.55 0.77 0.98 0.94 0.84 1.13 1.97 2.14 1.36 0.90 0.94 1.21 1.21 1.09 0.96
0.01 0.03 0.05 0.08 0.16 0.38 0.47 0.32 0.27 0.28 0.28 0.16 0.12 0.17 0.29 0.63 0.95 0.69 0.72 0.81 0.76 0.88 0.69 0.82 1.40 1.71 1.55 1.09 1.08 1.34 1.23 1.18
0.02 0.04 0.04 0.06 0.08 0.12 0.24 0.13 0.07 0.07 0.10 0.13 0.11 0.16 0.32 1.03 1.33 1.00 0.74 0.78 0.75 0.79 0.74 0.67 0.81 1.47 1.55 1.17 0.82 0.94 1.33 1.29
0.00 0.00 0.00 0.03 0.03 0.05 0.23 0.13 0.06 0.05 0.05 0.05 0.07 0.11 0.16 0.50 1.03 0.94 0.74 1.02 0.95 0.80 0.92 0.96 0.83 0.81 1.15 1.14 0.92 0.84 1.32 1.20
0.01 0.01 0.00 0.00 0.06 0.08 0.20 0.16 0.16 0.08 0.11 0.15 0.26 0.20 0.14 0.23 0.89 1.22 0.98 0.99 1.17 1.18 1.13 1.25 1.22 1.29 0.96 1.45 1.37 1.25 1.38 1.06
0.04 0.02 0.02 0.02 0.02 0.11 0.19 0.15 0.21 0.23 0.27 0.22 0.22 0.29 0.18 0.19 0.51 1.07 1.37 1.23 1.24 1.22 1.20 1.18 1.06 1.10 1.24 1.45 1.80 1.77 1.79 1.55
0.09 0.06 0.06 0.07 0.05 0.17 0.19 0.16 0.20 0.23 0.30 0.16 0.19 0.32 0.39 0.42 0.44 0.81 1.32 1.64 1.46 0.97 1.05 1.04 0.95 0.78 0.88 1.19 1.61 1.80 2.14 2.22
0.16 0.16 0.18 0.21 0.20 0.22 0.34 0.30 0.37 0.28 0.19 0.25 0.31 0.38 0.46 0.57 0.49 0.71 1.24 1.18 1.02 0.79 0.96 1.09 1.06 1.07 1.06 0.97 1.12 1.15 1.24 1.64
0.19 0.21 0.24 0.28 0.30 0.29 0.33 0.30 0.49 0.48 0.43 0.47 0.41 0.34 0.34 0.39 0.45 0.44 0.68 0.89 1.05 0.98 1.10 1.13 1.16 1.09 1.07 1.07 1.00 1.03 1.08 1.12
0.27 0.27 0.31 0.32 0.34 0.35 0.49 0.34 0.29 0.45 0.60 0.58 0.39 0.45 0.57 0.46 0.45 0.48 0.62 0.94 1.09 1.25 1.32 1.25 1.27 1.31 1.31 1.29 1.20 1.13 1.23 1.12
0.53 0.61 0.51 0.57 0.56 0.54 0.64 0.72 0.79 0.79 0.72 0.58 0.54 0.69 1.02 0.95 0.85 0.77 0.79 1.11 1.38 1.32 1.39 1.60 1.52 1.65 1.65 1.63 1.48 1.33 1.32 1.28
0.41 0.95 1.10 1.05 1.05 1.18 1.01 0.92 1.01 1.09 0.96 0.89 1.22 1.47 1.56 1.45 1.46 1.58 1.32 1.12 1.09 1.04 1.21 1.30 1.25 1.46 1.66 1.65 1.54 1.40 1.39 1.55
0.21 0.43 0.71 1.25 0.78 1.11 0.94 0.93 1.18 1.40 1.47 1.58 1.70 1.70 1.70 1.76 1.70 1.54 1.39 1.46 1.51 1.46 1.65 1.72 1.45 1.33 1.57 1.64 1.63 1.46 1.48 1.58
0.25 0.29 0.36 0.46 0.68 1.25 2.01 1.01 1.21 1.45 1.52 1.29 1.33 1.68 1.70 1.65 1.49 1.28 1.07 1.08 1.09 1.21 1.16 1.22 1.23 1.17 1.25 1.44 1.60 1.69 1.40 1.40
0.29 0.39 0.47 0.49 0.50 0.48 0.64 0.62 1.19 1.73 1.58 1.41 1.60 1.47 1.39 1.40 1.33 1.02 0.82 0.96 1.01 0.94 0.77 0.88 0.97 1.09 1.43 1.36 1.42 1.58 1.54 1.38
0.25 0.31 0.36 0.42 0.53 0.68 0.67 0.60 0.84 1.10 1.47 1.79 1.35 1.69 1.65 1.20 1.13 0.99 0.95 0.98 1.04 1.24 1.03 1.09 1.36 1.43 1.74 1.72 1.62 1.72 1.61 1.50
0.20 0.26 0.30 0.37 0.40 0.33 0.39 0.49 0.60 0.62 0.99 1.86 1.87 1.92 2.69 1.89 1.15 1.16 1.09 1.44 1.40 1.29 1.51 1.43 1.33 1.30 1.73 1.74 1.86 1.66 1.99 1.89
0.22 0.20 0.26 0.30 0.26 0.22 0.20 0.20 0.29 0.38 0.36 0.76 1.39 1.44 2.05 2.85 2.20 1.85 1.90 1.58 1.49 1.22 1.20 1.16 1.14 1.71 1.79 2.15 2.44 2.10 1.81 1.87

GFSFLT1_prec_precacc_156.txt.gz
Total_Precipitation_Accumulation
0.03 0.08 0.04 0.04 0.17 0.43 0.85 0.92 1.07 1.07 0.77 0.64 0.61 0.71 0.78 0.83 0.76 0.77 0.97 1.08 1.05 1.14 1.36 1.60 1.59 1.46 1.19 0.99 1.09 1.24 1.23 1.08
0.04 0.07 0.08 0.06 0.12 0.37 0.48 0.71 0.88 0.60 0.38 0.33 0.37 0.42 0.50 0.83 0.84 0.55 0.77 0.98 0.94 0.84 1.13 1.97 2.14 1.36 0.90 0.94 1.21 1.21 1.09 0.96
0.01 0.03 0.05 0.08 0.16 0.38 0.47 0.32 0.27 0.28 0.28 0.16 0.12 0.17 0.29 0.63 0.95 0.69 0.72 0.81 0.76 0.88 0.69 0.82 1.40 1.71 1.55 1.09 1.08 1.34 1.24 1.18
0.02 0.04 0.04 0.06 0.08 0.12 0.24 0.13 0.07 0.07 0.10 0.13 0.11 0.16 0.32 1.03 1.33 1.00 0.74 0.78 0.75 0.79 0.74 0.67 0.81 1.47 1.55 1.17 0.82 0.95 1.34 1.29
0.00 0.00 0.00 0.03 0.03 0.05 0.23 0.13 0.06 0.05 0.05 0.05 0.07 0.11 0.16 0.50 1.03 0.94 0.74 1.02 0.95 0.80 0.92 0.96 0.83 0.81 1.15 1.14 0.92 0.84 1.33 1.21
0.01 0.01 0.00 0.00 0.06 0.08 0.20 0.16 0.16 0.08 0.11 0.15 0.26 0.20 0.14 0.23 0.89 1.22 0.98 0.99 1.17 1.18 1.13 1.25 1.22 1.29 0.96 1.45 1.37 1.26 1.39 1.07
0.04 0.02 0.02 0.02 0.02 0.11 0.19 0.15 0.21 0.23 0.27 0.22 0.22 0.29 0.18 0.19 0.51 1.07 1.37 1.23 1.24 1.22 1.20 1.18 1.06 1.10 1.25 1.45 1.81 1.77 1.79 1.56
0.09 0.06 0.06 0.07 0.05 0.17 0.19 0.16 0.20 0.23 0.30 0.16 0.19 0.32 0.39 0.42 0.44 0.81 1.32 1.64 1.46 0.97 1.05 1.04 0.95 0.78 0.88 1.19 1.61 1.80 2.14 2.22
0.16 0.16 0.18 0.21 0.20 0.22 0.34 0.30 0.37 0.28 0.19 0.25 0.31 0.38 0.46 0.57 0.49 0.71 1.24 1.18 1.02 0.79 0.96 1.09 1.06 1.07 1.06 0.97 1.13 1.15 1.25 1.64
0.19 0.21 0.24 0.28 0.30 0.29 0.33 0.30 0.49 0.48 0.43 0.47 0.41 0.34 0.34 0.39 0.45 0.44 0.68 0.89 1.05 0.98 1.10 1.13 1.16 1.09 1.07 1.07 1.00 1.03 1.08 1.12
0.27 0.27 0.31 0.32 0.34 0.35 0.49 0.34 0.29 0.45 0.60 0.58 0.39 0.45 0.57 0.46 0.45 0.48 0.62 0.94 1.09 1.25 1.32 1.25 1.27 1.31 1.31 1.29 1.20 1.13 1.23 1.12
0.53 0.61 0.51 0.57 0.56 0.54 0.64 0.72 0.79 0.79 0.72 0.58 0.54 0.69 1.02 0.95 0.85 0.77 0.79 1.11 1.38 1.32 1.39 1.60 1.52 1.65 1.65 1.63 1.48 1.33 1.32 1.28
0.41 0.95 1.10 1.05 1.05 1.18 1.01 0.92 1.01 1.09 0.96 0.89 1.22 1.47 1.56 1.45 1.46 1.58 1.32 1.12 1.09 1.04 1.21 1.30 1.25 1.46 1.66 1.65 1.54 1.40 1.39 1.55
0.21 0.43 0.71 1.25 0.78 1.11 0.94 0.93 1.18 1.40 1.47 1.58 1.70 1.70 1.70 1.76 1.70 1.54 1.39 1.46 1.51 1.46 1.65 1.72 1.45 1.33 1.57 1.64 1.63 1.46 1.48 1.58
0.25 0.29 0.36 0.46 0.68 1.25 2.01 1.01 1.21 1.45 1.52 1.29 1.33 1.68 1.70 1.65 1.49 1.28 1.07 1.08 1.09 1.21 1.16 1.22 1.23 1.17 1.25 1.44 1.60 1.69 1.40 1.40
0.29 0.39 0.47 0.49 0.50 0.48 0.64 0.62 1.19 1.73 1.58 1.41 1.60 1.47 1.39 1.40 1.33 1.02 0.82 0.96 1.01 0.94 0.77 0.88 0.97 1.09 1.43 1.36 1.42 1.58 1.54 1.38
0.25 0.31 0.36 0.42 0.53 0.68 0.67 0.60 0.84 1.10 1.47 1.79 1.35 1.69 1.65 1.20 1.13 0.99 0.95 0.98 1.04 1.24 1.03 1.09 1.36 1.43 1.74 1.72 1.62 1.72 1.61 1.50
0.20 0.26 0.30 0.37 0.40 0.33 0.39 0.49 0.60 0.62 0.99 1.86 1.87 1.92 2.69 1.89 1.15 1.16 1.09 1.44 1.40 1.29 1.51 1.43 1.33 1.30 1.73 1.74 1.86 1.66 1.99 1.89
0.22 0.20 0.26 0.30 0.26 0.22 0.20 0.20 0.29 0.38 0.36 0.76 1.39 1.44 2.05 2.85 2.20 1.85 1.90 1.58 1.49 1.22 1.20 1.16 1.14 1.71 1.79 2.15 2.44 2.10 1.81 1.87

GFSFLT1_prec_precacc_162.txt.gz
Total_Precipitation_Accumulation
0.03 0.08 0.04 0.04 0.17 0.43 0.85 0.92 1.07 1.07 0.77 0.64 0.61 0.71 0.78 0.83 0.76 0.77 0.97 1.08 1.05 1.14 1.36 1.60 1.59 1.46 1.19 0.99 1.09 1.24 1.23 1.08
0.04 0.07 0.08 0.06 0.12 0.37 0.48 0.71 0.88 0.60 0.38 0.33 0.37 0.42 0.50 0.83 0.84 0.55 0.77 0.98 0.94 0.84 1.13 1.97 2.14 1.36 0.90 0.94 1.21 1.21 1.09 0.96
0.01 0.03 0.05 0.08 0.16 0.38 0.47 0.32 0.27 0.28 0.28 0.16 0.12 0.17 0.29 0.63 0.95 0.69 0.72 0.81 0.76 0.88 0.69 0.82 1.40 1.71 1.55 1.09 1.08 1.35 1.24 1.18
0.02 0.04 0.04 0.06 0.08 0.12 0.24 0.13 0.07 0.07 0.10 0.13 0.11 0.16 0.32 1.03 1.33 1.00 0.74 0.78 0.75 0.79 0.74 0.67 0.81 1.47 1.55 1.17 0.82 0.95 1.35 1.30
0.00 0.00 0.00 0.03 0.03 0.05 0.23 0.13 0.06 0.05 0.05 0.05 0.07 0.11 0.16 0.50 1.03 0.94 0.74 1.02 0.95 0.80 0.92 0.96 0.83 0.81 1.15 1.14 0.92 0.84 1.33 1.22
0.01 0.01 0.00 0.00 0.06 0.08 0.20 0.16 0.16 0.08 0.11 0.15 0.26 0.20 0.14 0.23 0.89 1.22 0.98 0.99 1.17 1.18 1.13 1.25 1.22 1.29 0.96 1.45 1.37 1.26 1.39 1.08
0.04 0.02 0.02 0.02 0.02 0.11 0.19 0.15 0.21 0.23 0.27 0.22 0.22 0.29 0.18 0.19 0.51 1.07 1.37 1.23 1.24 1.22 1.20 1.18 1.06 1.10 1.25 1.45 1.81 1.78 1.79 1.56
0.09 0.06 0.06 0.07 0.05 0.17 0.19 0.16 0.20 0.23 0.30 0.16 0.19 0.32 0.39 0.42 0.44 0.81 1.32 1.64 1.46 0.97 1.05 1.04 0.95 0.78 0.88 1.19 1.61 1.80 2.14 2.23
0.16 0.16 0.18 0.21 0.20 0.22 0.34 0.30 0.37 0.28 0.19 0.25 0.31 0.38 0.46 0.57 0.49 0.71 1.24 1.18 1.02 0.79 0.96 1.09 1.06 1.07 1.06 0.97 1.13 1.15 1.25 1.64
0.19 0.21 0.24 0.28 0.30 0.29 0.33 0.30 0.49 0.48 0.43 0.47 0.41 0.34 0.34 0.39 0.45 0.44 0.68 0.89 1.05 0.98 1.10 1.13 1.16 1.09 1.07 1.07 1.00 1.03 1.08 1.12
0.27 0.27 0.31 0.32 0.34 0.35 0.49 0.34 0.29 0.45 0.60 0.58 0.39 0.45 0.57 0.46 0.45 0.48 0.62 0.94 1.09 1.25 1.32 1.25 1.27 1.31 1.31 1.29 1.20 1.13 1.23 1.12
0.53 0.61 0.51 0.57 0.56 0.54 0.64 0.72 0.79 0.79 0.72 0.58 0.54 0.69 1.02 0.95 0.85 0.77 0.79 1.11 1.38 1.32 1.39 1.60 1.52 1.65 1.65 1.63 1.48 1.33 1.32 1.28
0.41 0.95 1.10 1.05 1.05 1.18 1.01 0.92 1.01 1.09 0.96 0.89 1.22 1.47 1.56 1.45 1.46 1.58 1.32 1.12 1.09 1.04 1.21 1.30 1.25 1.46 1.66 1.65 1.54 1.40 1.39 1.55
0.21 0.43 0.71 1.25 0.78 1.11 0.94 0.93 1.18 1.40 1.47 1.58 1.70 1.70 1.70 1.76 1.70 1.54 1.39 1.46 1.51 1.46 1.65 1.72 1.45 1.33 1.57 1.64 1.63 1.46 1.48 1.58
0.25 0.29 0.36 0.46 0.68 1.25 2.01 1.01 1.21 1.45 1.52 1.29 1.33 1.68 1.70 1.65 1.49 1.28 1.07 1.08 1.09 1.21 1.16 1.22 1.23 1.17 1.25 1.44 1.60 1.69 1.40 1.40
0.29 0.39 0.47 0.49 0.50 0.48 0.64 0.62 1.19 1.73 1.58 1.41 1.60 1.47 1.39 1.40 1.33 1.02 0.82 0.96 1.01 0.94 0.77 0.88 0.97 1.09 1.43 1.36 1.42 1.58 1.54 1.38
0.25 0.31 0.36 0.42 0.53 0.68 0.67 0.60 0.84 1.10 1.47 1.79 1.35 1.69 1.65 1.20 1.13 0.99 0.95 0.98 1.04 1.24 1.03 1.09 1.36 1.43 1.74 1.72 1.62 1.72 1.61 1.50
0.20 0.26 0.30 0.37 0.40 0.33 0.39 0.49 0.60 0.62 0.99 1.86 1.87 1.92 2.69 1.89 1.15 1.16 1.09 1.44 1.40 1.29 1.51 1.43 1.33 1.30 1.73 1.74 1.86 1.66 1.99 1.89
0.22 0.20 0.26 0.30 0.26 0.22 0.20 0.20 0.29 0.38 0.36 0.76 1.39 1.44 2.05 2.85 2.20 1.85 1.90 1.58 1.49 1.22 1.20 1.16 1.14 1.71 1.79 2.15 2.44 2.10 1.81 1.87